Miscellaneous Local Product
Issued by NWS North Platte, NE

Home | Current Version | Previous Version | Text Only | Print | Product List | Glossary On
Versions: 1 2 3 4 5 6 7 8 9 10 11 12 13 14 15 16 17 18 19 20 21 22 23 24 25 26 27 28 29 30 31 32 33 34 35 36 37 38 39 40 41 42 43 44 45 46 47 48 49 50
000
AXUS43 KLBF 240710
MISLBF


WESTERN AND NORTH CENTRAL NEBRASKA HOURLY WEATHER ROUNDUP
NATIONAL WEATHER SERVICE NORTH PLATTE NE
200 AM CDT FRI OCT 24 2014

***STATIONS NOT REPORTING VARIABLES SUCH AS SKY/WEATHER OR
PRESSURE ARE PROVIDED BY THE NEBRASKA DEPARTMENT OF
ROADS...RAWS...AND APRS NETWORKS...AND ARE NOT UNDER
NATIONAL WEATHER SERVICE QUALITY CONTROL***

...OBSERVATIONS IN AND NEAR THE EASTERN PANHANDLE OF NEBRASKA...

CITY           SKY/WX    TMP DP  RH WIND       PRES   REMARKS
PINE RIDGE     CLOUDY    37  33  85 E3        29.94S
CHADRON        MOCLDY    40  34  79 CALM      29.94F
ALLIANCE       PTCLDY    40  32  73 CALM      29.99F
SIDNEY         PTCLDY    49  34  56 W8        30.06R
WHITECLAY        N/A     39  32  74 SE5         N/A
RUSHVILLE        N/A     40  33  77 S5          N/A
CRESCENT LAKE    N/A     53  33  46 SW5         N/A
LISCO            N/A     41  32  69 CALM        N/A
BIG SPRINGS      N/A     46  36  68 CALM        N/A
LEWELLEN         N/A     44  38  78 CALM        N/A
$$

...OBSERVATIONS IN NORTH CENTRAL NEBRASKA...

CITY           SKY/WX    TMP DP  RH WIND       PRES   REMARKS
VALENTINE      MOCLDY    42  36  79 SW8       29.92S
THEDFORD       PTCLDY    50  40  70 SW3       29.96S
AINSWORTH      PTCLDY    50  40  68 W6        29.92R
O`NEILL        CLEAR     54  53  95 SW9       29.90F
ORD            PTCLDY    55  52  89 CALM      29.94S
BROKEN BOW     PTCLDY    56  52  86 CALM      29.96S
BROWNLEE         N/A     53  35  51 SW5         N/A
SPRINGVIEW       N/A     47  42  82 CALM        N/A
BREWSTER         N/A     59  54  82 W12         N/A
ROSE             N/A     53  53  97 S7          N/A
NEWPORT          N/A     50  48  93 W6          N/A
SARGENT          N/A     54  51  89 CALM        N/A
COMSTOCK         N/A     59  58  94 SW10        N/A
CHAMBERS         N/A     55  53  93 S6          N/A
EWING            N/A     57  55  92 SW7         N/A
$$

...OBSERVATIONS IN SOUTHWEST NEBRASKA AND FAR NORTHEAST COLORADO...

CITY           SKY/WX    TMP DP  RH WIND       PRES   REMARKS
WRAY           FAIR      52  40  62 SW10      30.05F
HOLYOKE        FAIR      52  37  58 W7        30.04S
IMPERIAL       MOCLDY    51  40  65 SW10      30.02S
OGALLALA       PTCLDY    41  36  81 W6        30.01R
NORTH PLATTE   PTCLDY    49  47  93 NW3       29.99S
MCCOOK         PTCLDY    56  53  90 SW5       30.02S FOG
LEXINGTON      PTCLDY    59  56  89 SW10      29.99S
PAXTON           N/A     49  38  67 CALM        N/A
SUTHERLAND       N/A     46  41  82 W5          N/A
BRADY            N/A     54  51  89 CALM        N/A
GOTHENBURG       N/A     59  51  76 SW3         N/A
CALLAWAY         N/A     54  52  93 S7          N/A
$$

...SOME WEATHER OBSERVATIONS FROM AROUND THE REGION...

CITY           SKY/WX    TMP DP  RH WIND       PRES   REMARKS
DENVER         CLOUDY    58  30  34 S13       30.13S
LARAMIE        CLOUDY    52  25  35 SW17      30.20R
CHEYENNE       CLOUDY    52  30  43 W13       30.15R
SCOTTSBLUFF    MOCLDY    46  36  68 N7        30.01F
RAPID CITY     CLOUDY    47  33  58 W6        29.92S
PIERRE         CLOUDY    44  36  73 W10       29.86R
WINNER         FAIR      54  35  48 SW8       29.88R
SIOUX FALLS    MOCLDY    55  49  80 S12       29.88F
OMAHA          PTCLDY    55  50  83 SE10      30.00S
GRAND ISLAND   FAIR      59  55  87 S13       29.98F
KANSAS CITY    MOCLDY    56  56 100 S9        30.07F FOG
WICHITA        PTCLDY    61  57  87 S9        30.06F
HAYS           CLEAR     57  52  82 S6        30.05S
LIBERAL        CLEAR     57  52  82 SW7       30.11S
GOODLAND       PTCLDY    57  51  80 SW16      30.08R
$$



USA.gov is the U.S. government's official web portal to all federal, state and local government web resources and services.